Tracking 28081 objects as of 26-Sep-2023
HD Live streaming from Space Station
objects crossing your sky now

ATLAS 75E DEB

Track ATLAS 75E DEB now!
10-day predictions


NORAD ID: 25842
Int'l Code: 1983-072C
Perigee: 1,593.0 km
Apogee: 19,650.4 km
Inclination: 65.0 °
Period: 367.4 minutes
Semi major axis: 16992 km
RCS: 0.0797 m2 (small)
Launch date: July 14, 1983
Source: United States (US)
Launch site: AIR FORCE WESTERN TEST RANGE (AFWTR)

Note: This is SATELLITE DEBRIS
Your satellite tracking list
Your tracking list is empty




NASA's NSSDC Master Catalog

Two Line Element Set (TLE):
1 25842U 83072C   23263.58716566  .00000017  00000-0  00000-0 0  9999
2 25842  65.0241  66.8636 5313267 134.9067 357.7229  3.91931274 36286
Source of the keplerian elements: AFSPC